Location: Orange
(33.2833°S, 149.1000°E)
Time: 02:03:47
(UTC+11:00)

N. Korean satellite - Visible Passes

Search period start: 05 December 2021 00:00
Search period end: 15 December 2021 00:00
Orbit: 447 x 495 km, 97.3° (Epoch: 03 December)

Date Brightness Start Highest point End Pass type
(mag) Time Alt. Az. Time Alt. Az. Time Alt. Az.
05 Dec 9.7 04:46:25 10° ENE 04:48:39 16° ESE 04:50:55 10° SSE visible
08 Dec 9.5 04:53:31 10° ENE 04:56:10 20° ESE 04:58:53 10° SSE visible
11 Dec 9.1 05:00:39 10° NE 05:03:37 26° ESE 05:06:39 10° SSE visible
12 Dec 10.1 04:34:12 10° E 04:35:18 11° ESE 04:36:24 10° SE visible
14 Dec 8.6 05:07:46 10° NE 05:10:58 32° ESE 05:14:17 10° S visible
